Weather History for Janesville, WI

Change the Weather History Date:

Saturday, September 7, 2013

  Actual Average Record
Temperature  
Mean Temperature 78 °F -  
Max Temperature 91 °F 76 °F 95 °F (1990)
Min Temperature 66 °F 53 °F 39 °F (1988)
Cooling Degree Days 14    
Growing Degree Days 28 (Base 50)    
Moisture  
Dew Point 62 °F    
Average Humidity 67    
Maximum Humidity 83    
Minimum Humidity 36    
Precipitation  
Precipitation 0.00 in - - ()
Sea Level Pressure  
Sea Level Pressure 29.95 in    
Wind  
Wind Speed 4 mph (SSW)    
Max Wind Speed 17 mph    
Max Gust Speed 22 mph    
Visibility 10 miles    
Events Rain    
Averages and records for this station are not official NWS values.
T = Trace of Precipitation, MM = Missing Value Source: NWS Daily Summary

Daily Weather History Graph

Daily Weather History Graph

Search for Another Location

Airport:

Trip Planner

Search our weather history database for the weather conditions in past years. The results will help you decide how hot, cold, wet, or windy it might be!

Date:

Astronomy

Sep. 07, 2013 Rise Set
Actual Time 6:27 AM CDT 7:19 PM CDT
Civil Twilight 5:59 AM CDT 7:48 PM CDT
Nautical Twilight 5:24 AM CDT 8:22 PM CDT
Astronomical Twilight 4:49 AM CDT 8:57 PM CDT
Moon 8:46 AM CDT (9/7) 8:13 PM CDT (9/7)
Length of Visible Light 13h 49m
Length of Day
12h 51m
Waxing Crescent, 5% of the Moon is Illuminated
Sep 7
Waxing Crescent
Sep 12
First Quarter
Sep 19
Full
Sep 26
Last Quarter
Oct 4
New

Hourly Weather History & Observations

Time (CDT) Temp. Heat Index Dew Point Humidity Pressure Visibility Wind Dir Wind Speed Gust Speed Precip Events Conditions
12:15 AM 69.8 °F - 62.6 °F 78% 30.00 in 10.0 mi South 3.5 mph - N/A   Clear
12:35 AM 69.8 °F - 62.6 °F 78% 30.00 in 10.0 mi SSW 5.8 mph - N/A   Clear
12:55 AM 69.8 °F - 60.8 °F 73% 30.00 in 10.0 mi SSW 3.5 mph - N/A   Clear
1:15 AM 69.8 °F - 60.8 °F 73% 30.00 in 10.0 mi Calm Calm - N/A   Clear
1:35 AM 68.0 °F - 60.8 °F 78% 29.99 in 10.0 mi SW 4.6 mph - N/A   Clear
1:55 AM 69.8 °F - 60.8 °F 73% 29.99 in 10.0 mi SW 4.6 mph - N/A   Clear
2:15 AM 68.0 °F - 60.8 °F 78% 29.99 in 10.0 mi SW 5.8 mph - N/A   Clear
2:35 AM 68.0 °F - 60.8 °F 78% 29.98 in 10.0 mi SW 4.6 mph - N/A   Clear
2:55 AM 68.0 °F - 60.8 °F 78% 29.98 in 10.0 mi SW 3.5 mph - N/A   Clear
3:15 AM 68.0 °F - 60.8 °F 78% 29.98 in 10.0 mi SSW 3.5 mph - N/A   Clear
3:35 AM 68.0 °F - 60.8 °F 78% 29.98 in 10.0 mi Calm Calm - N/A   Clear
3:55 AM 68.0 °F - 60.8 °F 78% 29.98 in 10.0 mi Calm Calm - N/A   Scattered Clouds
4:15 AM 68.0 °F - 60.8 °F 78% 29.99 in 10.0 mi Calm Calm - N/A   Scattered Clouds
4:35 AM 66.2 °F - 59.0 °F 78% 29.98 in 10.0 mi SSE 3.5 mph - N/A   Scattered Clouds
4:55 AM 66.2 °F - 60.8 °F 83% 29.97 in 10.0 mi South 3.5 mph - N/A   Scattered Clouds
5:15 AM 68.0 °F - 59.0 °F 73% 29.97 in 10.0 mi SSW 3.5 mph - N/A   Clear
5:35 AM 68.0 °F - 59.0 °F 73% 29.98 in 10.0 mi SSW 3.5 mph - N/A   Clear
5:45 AM 66.2 °F - 60.8 °F 83% 29.98 in 10.0 mi SSW 5.8 mph - N/A   Mostly Cloudy
6:45 AM 68.0 °F - 60.8 °F 78% 29.98 in 10.0 mi SSW 4.6 mph - N/A Rain Light Rain
7:45 AM 68.0 °F - 62.6 °F 83% 29.98 in 10.0 mi SSW 3.5 mph - N/A   Scattered Clouds
8:45 AM 71.6 °F - 62.6 °F 73% 29.96 in 10.0 mi SSW 8.1 mph - N/A   Partly Cloudy
9:45 AM 78.8 °F - 60.8 °F 54% 29.96 in 10.0 mi SW 10.4 mph - N/A   Scattered Clouds
10:45 AM 82.4 °F 82.9 °F 60.8 °F 48% 29.95 in 10.0 mi SSW 12.7 mph - N/A   Scattered Clouds
11:45 AM 86.0 °F 86.1 °F 60.8 °F 43% 29.94 in 10.0 mi WSW 15.0 mph 21.9 mph N/A   Scattered Clouds
12:45 PM 87.8 °F 87.6 °F 60.8 °F 40% 29.91 in 10.0 mi WSW 12.7 mph - N/A   Clear
2:45 PM 91.4 °F 91.4 °F 60.8 °F 36% 29.89 in 10.0 mi SW 17.3 mph - N/A   Clear
3:45 PM 91.4 °F 92.1 °F 62.6 °F 38% 29.88 in 10.0 mi SW 11.5 mph - N/A   Clear
4:45 PM 91.4 °F 92.1 °F 62.6 °F 38% 29.89 in 10.0 mi SW 8.1 mph - N/A   Clear
5:45 PM 87.8 °F 89.4 °F 64.4 °F 46% 29.89 in 10.0 mi SW 4.6 mph - N/A   Scattered Clouds
6:45 PM 87.8 °F 89.4 °F 64.4 °F 46% 29.90 in 10.0 mi SW 3.5 mph - N/A   Mostly Cloudy
7:45 PM 82.4 °F 84.6 °F 66.2 °F 58% 29.90 in 10.0 mi Calm Calm - N/A   Clear
8:45 PM 78.8 °F - 66.2 °F 65% 29.92 in 10.0 mi Calm Calm - N/A   Clear
9:15 PM 77.0 °F - 64.4 °F 65% 29.93 in 10.0 mi Calm Calm - N/A   Clear
9:35 PM 77.0 °F - 66.2 °F 69% 29.93 in 10.0 mi NE 3.5 mph - N/A   Clear
9:55 PM 77.0 °F - 66.2 °F 69% 29.93 in 10.0 mi Calm Calm - N/A   Clear
10:15 PM 77.0 °F - 64.4 °F 65% 29.93 in 10.0 mi Calm Calm - N/A   Clear
10:35 PM 77.0 °F - 66.2 °F 69% 29.94 in 10.0 mi ESE 3.5 mph - N/A   Scattered Clouds
10:55 PM 75.2 °F - 64.4 °F 69% 29.94 in 10.0 mi ESE 3.5 mph - N/A   Scattered Clouds
11:15 PM 73.4 °F - 66.2 °F 78% 29.94 in 10.0 mi ENE 3.5 mph - N/A   Mostly Cloudy
11:35 PM 77.0 °F - 66.2 °F 69% 29.95 in 10.0 mi NE 9.2 mph - N/A   Scattered Clouds
11:55 PM 73.4 °F - 66.2 °F 78% 29.95 in 10.0 mi ENE 6.9 mph - N/A   Clear